Location: Bartshausen
(51.8454°N, 9.8167°E)
Time: 08:52:05
(UTC+00:00)

Cosmos 2333 Rocket - Pass Details

Date: 08 November 2025
Orbit: 837 x 865 km, 70.8° (Epoch: 11 December)

Event Time Altitude Azimuth Distance (km) Brightness Sun altitude
Exits shadow 01:57:27 22° 53° (NE) 1,773 4.3 -41.0°
Drops below altitude 10° 01:59:39 10° 41° (NE) 2,504 5.2 -40.7°
Sets 02:02:14 0° 35° (NE) 3,448 6.1 -40.3°
